Location: Riddle Hill
(39.7867°N, 89.7645°W)
Time: 21:15:33
(UTC+00:00)

SL-4 R/B - Pass Details

Date: 29 October 2020
Orbit: 427 x 665 km, 51.6° (Epoch: 30 November)

Event Time Altitude Azimuth Distance (km) Brightness Sun altitude
Rises 23:51:46 0° 311° (NW) 2,438 5.9 -10.5°
Reaches altitude 10° 23:54:32 10° 336° (NNW) 1,599 4.6 -11.1°
Maximum altitude 23:56:46 16° 14° (NNE) 1,326 3.7 -11.5°
Enters shadow 23:58:24 12° 44° (NE) 1,512 3.8 -11.8°
